Other Public Products
Issued by NWS Grand Forks, ND

Home | Current Version | Previous Version | Graphics & Text | Print | Product List | Glossary On
Versions: 1 2 3 4 5 6 7 8 9 10 11 12 13 14 15 16 17 18 19 20 21 22 23 24 25 26 27 28 29 30 31 32 33 34 35 36 37 38 39 40 41 42 43 44 45 46 47 48 49 50
000
FPUS83 KFGF 270510
OPUFGF
PRAIRIE TO PINES WEATHER ROUNDUP
NATIONAL WEATHER SERVICE EASTERN NORTH DAKOTA/GRAND FORKS ND
1200 AM CDT FRI MAY 27 2016

 **SATELLITE DATA USED TO AUGMENT SKY COVER AT AUTOMATED STATIONS**
 *****  WEATHER ACROSS EASTERN NORTH DAKOTA  *****

CITY           SKY/WX    TMP DP  RH WIND       PRES   REMARKS
GRAND FORKS    MOCLDY    58  55  90 CALM      29.78F
GRAND FORKS AF CLOUDY    55  55  99 N2        29.78S
GRAND CITY NWS   N/A     59 N/A N/A MISG        N/A
BUXTON           N/A     59  58  97 CALM        N/A
DEVILS LAKE    CLEAR     55  54  96 SW3       29.81R
FARGO          MOCLDY    66  53  63 N8        29.77R
WAHPETON ARPT  CLOUDY    64  48  55 SW8       29.79F
$$

 *****  WEATHER ACROSS CENTRAL AND WESTERN NORTH DAKOTA  *****

CITY           SKY/WX    TMP DP  RH WIND       PRES   REMARKS
JAMESTOWN      MOCLDY    56  53  90 CALM      29.79S
BISMARCK       CLEAR     56  50  80 N6        29.82F
MINOT          CLOUDY    57  53  86 CALM      29.83S
MINOT AFB      LGT RAIN  55  53  92 NW5       29.83R
GARRISON         N/A     53  50  89 CALM      29.84S
WILLISTON      CLOUDY    51  47  86 N9        29.86R
DICKINSON      CLOUDY    49  43  80 CALM      29.84S
HETTINGER      CLEAR     41  37  86 CALM      29.87F
$$

 *****  OTHER OBSERVATIONS NORTHEAST NORTH DAKOTA  *****

CITY           SKY/WX    TMP DP  RH WIND       PRES   REMARKS
WALHALLA       FAIR      57  57 100 W3        29.78R
LANGDON        FAIR      52  52 100 NW7       29.79S
CAVALIER       FAIR      55  55 100 SW6       29.77S
GRAFTON        FAIR      54  54 100 SW6       29.80R
CANDO          NOT AVBL
FORT TOTTEN    NOT AVBL
ROLLA          CLOUDY    55  55 100 N3        29.82S
RUGBY          MOCLDY    52  52 100 W6        29.82S
 ***** THE ABOVE OBSERVATIONS ARE NON NWS ARE NOT QUALITY
        CONTROLLED AND MAY MIS-REPORT RAIN FOR SNOW...
$$

 *****  OTHER OBSERVATIONS SOUTHEAST NORTH DAKOTA *****

CITY           SKY/WX    TMP DP  RH WIND       PRES   REMARKS
COOPERSTOWN    NOT AVBL
VALLEY CITY    LGT RAIN  59  59 100 S5        29.82R
OAKES            N/A    N/A N/A N/A MISG        N/A
GWINNER        FAIR      63  54  72 S16       29.81R
BUFFALO          N/A     56  53  91 N18G35      N/A
WYNDMERE       NOT AVBL
 ***** THE ABOVE OBSERVATIONS ARE NON NWS ARE NOT QUALITY
       CONTROLLED AND MAY MIS-REPORT RAIN FOR SNOW...
$$

  *****  WEATHER ACROSS NORTHERN MINNESOTA  *****

CITY           SKY/WX    TMP DP  RH WIND       PRES   REMARKS
FLAG ISLAND    PTCLDY    59  54  82 SW8       29.74S
WARROAD        CLEAR     57  54  88 SW6       29.77R
ROSEAU         CLEAR     57  54  88 SW6       29.77R
HALLOCK        CLEAR     55  54  94 SW3       29.77S
THF RVR FALLS  PTCLDY    57  52  82 W3        29.81R
HALSTAD        NOT AVBL
FOSSTON        CLEAR     54  52  94 CALM      29.81R
BAUDETTE       CLEAR     56  52  86 SW5       29.76F
WASKISH        CLEAR     57  52  82 CALM      29.79R
CROOKSTON      CLOUDY    59  55  88 CALM      29.80S
$$
  *****  WEATHER ACROSS CENTRAL AND WEST MINNESOTA  *****

CITY           SKY/WX    TMP DP  RH WIND       PRES   REMARKS
BEMIDJI        CLEAR     58  51  77 S3        29.80S
PARK RAPIDS    CLOUDY    58  51  78 CALM      29.81S
WADENA         CLOUDY    57  52  82 E3        29.82R
DETROIT LAKES  LGT RAIN  63  55  77 S8        29.82R
MOORHEAD       MOCLDY    64  55  72 SE5       29.78S
FERGUS FALLS   CLOUDY    66  52  59 SE6       29.77R
ELBOW LAKE     FAIR      64  54  69 SE3       29.82R
MORRIS MN      CLOUDY    64  46  52 CALM      29.81R
STAPLES        CLOUDY    59  50  72 CALM      29.83R
WHEATON        CLOUDY    68  55  64 W12G23    29.85R
$$
  *****  WEATHER ELSEWHERE ACROSS MINNESOTA  *****

CITY           SKY/WX    TMP DP  RH WIND       PRES   REMARKS
DULUTH         CLOUDY    51  48  89 CALM      29.83R
INTRNTL FALLS  CLEAR     54  51  90 SW3       29.77F
ELY            PTCLDY    61  55  82 CALM      29.81R
CLOQUET        PTCLDY    48  46  93 CALM      29.84R
BRAINERD       CLOUDY    55  52  89 CALM      29.83R
HIBBING        CLOUDY    49  48  97 CALM      29.81R
ALEXANDRIA     CLOUDY    64  50  60 E5        29.84R
SAINT CLOUD    CLOUDY    61  56  83 CALM      29.82R
MINNEAPOLIS    CLOUDY    72  53  51 S6        29.83R
$$

  *****  WEATHER ACROSS SOUTH DAKOTA  *****

CITY           SKY/WX    TMP DP  RH WIND       PRES   REMARKS
SIOUX FALLS    CLOUDY    64  54  69 SW3       29.81R
BROOKINGS      CLOUDY    63  53  70 SE7       29.82R
WATERTOWN      CLOUDY    63  54  72 CALM      29.84R
HURON          CLOUDY    62  54  74 NE7       29.80S
SISSETON         N/A     61  56  83 N14       29.82R
ABERDEEN       MOCLDY    61  55  81 S9        29.82S
MITCHELL       CLOUDY    64  59  83 E3        29.80R
PIERRE         PTCLDY    57  50  77 NE3       29.80R
MOBRIDGE       CLEAR     59  47  64 NW8       29.79R
RAPID CITY     CLEAR     53  44  71 N12       29.87S
$$

  *****  SOME WEATHER IN NEARBY STATES *****

CITY           SKY/WX    TMP DP  RH WIND       PRES   REMARKS
GLASGOW MT     CLOUDY    54  49  83 NE12      29.87R
GREAT FALLS MT MOCLDY    50  44  80 SW8       29.92F
CHEYENNE WY    CLOUDY    47  38  71 NW8       29.91F
SCOTTSBLUFF NE CLOUDY    53  43  68 W9        29.85S
OMAHA NE       CLOUDY    66  56  70 SE26G38   29.78R
DES MOINES IA  LGT RAIN  65  58  78 S12       29.85F
DAVENPORT IA   CLOUDY    71  65  81 W7        29.87F
CHICAGO IL     CLOUDY    75  65  70 S10       29.87F
EAU CLAIRE WI  CLOUDY    61  57  87 CALM      29.84S
LA CROSSE WI   CLOUDY    68  61  78 SE5       29.85R
$$

  *****  SOME NATIONAL WEATHER *****

CITY           SKY/WX    TMP DP  RH WIND       PRES   REMARKS
LA GUARDIA NY  CLOUDY    71  64  78 S3        30.04F
RALEIGH NC     PTCLDY    73  64  73 SW8       30.12R
ATLANTA GA     PTCLDY    74  63  68 S6        30.09F
NEW ORLEANS LA CLOUDY    79  72  79 SE10      29.99F
OKLAHOMA CITY  TSTM      68  61  78 SE43G53   29.68F
ALBUQUERQUE NM PTCLDY    59  21  23 N10       29.95R
SALT LAKE CITY PTCLDY    56  40  55 SW6       29.95R
LOS ANGELES CA CLEAR     60  54  80 SW5       29.98R
BOISE ID       PTCLDY    65  39  38 E3        29.90S
SEATTLE WA     MOCLDY    54  41  61 SW14      30.15R
$$

*** WEATHER ACROSS MANITOBA...SASKATCHEWAN AND ONTARIO ***
                ***ONTARIO***

CITY           SKY/WX    TMP DP  RH WIND       PRES   REMARKS
GERALDTON      MOCLDY    52  50  93 NE5       29.82F
THUNDER BAY    CLOUDY    52  50  93 E5        29.82S FOG
SIOUX LOOKOUT  PTCLDY    52  52 100 SE2       29.76S
TORONTO        MOCLDY    64  57  77 SE5       29.95S
BIG TROUT LK   CLEAR     54  48  82 W3        29.79R
PICKLE LAKE    NOT AVBL
DRYDEN         MOCLDY    59  55  88 S7        29.75S
KENORA         MOCLDY    59  54  82 SW5       29.74S
$$
                *** MANITOBA***

CITY           SKY/WX    TMP DP  RH WIND       PRES   REMARKS
BRANDON        LGT RAIN  55  54  94 W8        29.80S
DAUPHIN        CLOUDY    57  54  88 W7        29.79R
ISLAND LAKE    PTCLDY    52  46  82 N10G20    29.86R
PILOT MOUND      N/A     54  54 100 SW5         N/A
THE PAS        PTCLDY    54  43  66 NE7       29.93R
THOMPSON       LGT RAIN  37  34  87 NE16G26   30.06R
WINNIPEG       CLOUDY    59  57  94 W3        29.76R
LYNN LAKE      CLOUDY    39  34  81 E16G23    30.10S
CHURCHILL      FLURRIES  30  30 100 NE13G23   30.23R WCI  20
GILLAM         DRIZZLE   34  30  86 NE23      30.06R WCI  22
$$
                ***SASKATCHEWAN***

CITY           SKY/WX    TMP DP  RH WIND       PRES   REMARKS
ESTEVAN        CLOUDY    50  48  93 CALM      29.86R FOG
KINDERSLEY     MOCLDY    59  46  63 S12       29.87S
LLOYDMINSTER   CLOUDY    55  48  76 E5        29.83F
PRINCE ALBERT  PTCLDY    54  46  76 E8        29.87R
REGINA         MOCLDY    52  50  93 W7        29.87S
YORKTON        PTCLDY    59  50  72 W5        29.84R
N. BATTLEFORD  PTCLDY    61  48  63 S6        29.87R  C1F1C2F2C3F3C4F4C5F5C6F6C7F7C8F8C9F9CaFaCbFbCcFcCdFdCe!



USA.gov is the U.S. government's official web portal to all federal, state and local government web resources and services.